| time (UTC) | temp F | wind direction | speed knots | gust knots | rain 1hr in | rain 24hr in | rain mn in | humidity % | barometer mb |
| 20260901050444 | 53 | 207 | 4.3 | 11.3 | 0.00 | 0.02 | 0.00 | 87 | 1015.6 |
| 20260901045931 | 53 | 261 | 3.5 | 11.3 | 0.00 | 0.02 | 0.00 | 88 | 1015.7 |
| 20260901045434 | 52 | 210 | 3.5 | 11.3 | 0.00 | 0.02 | 0.00 | 88 | 1015.7 |
| 20260901044933 | 52 | 223 | 2.6 | 7.0 | 0.00 | 0.02 | 0.00 | 89 | 1015.7 |
| 20260901044434 | 52 | 231 | 3.5 | 10.4 | 0.00 | 0.02 | 0.00 | 89 | 1015.8 |
| 20260901043433 | 51 | 220 | 5.2 | 10.4 | 0.00 | 0.02 | 0.00 | 90 | 1015.8 |
| 20260901042932 | 51 | 241 | 2.6 | 10.4 | 0.00 | 0.02 | 0.00 | 92 | 1015.7 |
| 20260901042432 | 51 | 220 | 6.1 | 11.3 | 0.00 | 0.02 | 0.00 | 92 | 1015.6 |
| 20260901041937 | 50 | 213 | 5.2 | 11.3 | 0.00 | 0.02 | 0.00 | 92 | 1015.7 |
| 20260901041415 | 49 | 259 | 2.6 | 7.0 | 0.00 | 0.02 | 0.00 | 91 | 1015.7 |
| 20260901040912 | 49 | 250 | 3.5 | 7.0 | 0.00 | 0.02 | 0.00 | 91 | 1015.7 |
| 20260901040412 | 49 | 295 | 1.7 | 9.6 | 0.00 | 0.02 | 0.00 | 91 | 1015.7 |
| 20260901035850 | 49 | 275 | 1.7 | 9.6 | 0.00 | 0.02 | 0.00 | 91 | 1015.7 |
| 20260901035346 | 49 | 247 | 1.7 | 7.0 | 0.00 | 0.02 | 0.00 | 91 | 1015.8 |
| 20260901034841 | 49 | 271 | 1.7 | 5.2 | 0.00 | 0.02 | 0.00 | 90 | 1015.9 |
| 20260901034337 | 49 | 271 | 2.6 | 5.2 | 0.00 | 0.02 | 0.00 | 90 | 1015.8 |
| 20260901033830 | 49 | 257 | 2.6 | 5.2 | 0.00 | 0.02 | 0.00 | 90 | 1015.9 |
| 20260901032832 | 49 | 274 | 2.6 | 6.1 | 0.00 | 0.02 | 0.00 | 90 | 1015.8 |
| 20260901032307 | 49 | 279 | 3.5 | 7.0 | 0.00 | 0.02 | 0.00 | 90 | 1015.7 |
| 20260901031809 | 48 | 224 | 3.5 | 7.0 | 0.00 | 0.02 | 0.00 | 90 | 1015.8 |
| 20260901031304 | 48 | 269 | 2.6 | 6.1 | 0.00 | 0.02 | 0.00 | 90 | 1015.9 |
| 20260901030804 | 49 | 265 | 2.6 | 5.2 | 0.00 | 0.02 | 0.00 | 89 | 1015.9 |
| 20260901030303 | 49 | 262 | 2.6 | 5.2 | 0.00 | 0.02 | 0.00 | 88 | 1015.9 |
| 20260901025804 | 49 | 251 | 2.6 | 6.1 | 0.00 | 0.02 | 0.00 | 88 | 1015.9 |
| 20260901024802 | 49 | 250 | 1.7 | 7.8 | 0.00 | 0.02 | 0.00 | 88 | 1015.8 |
| 20260901024304 | 49 | 262 | 2.6 | 7.8 | 0.00 | 0.02 | 0.00 | 87 | 1015.9 |
| 20260901023258 | 50 | 271 | 2.6 | 6.1 | 0.00 | 0.02 | 0.00 | 86 | 1015.9 |
| 20260901022755 | 50 | 244 | 3.5 | 7.0 | 0.00 | 0.02 | 0.00 | 85 | 1015.9 |
| 20260901022239 | 51 | 266 | 3.5 | 6.1 | 0.00 | 0.02 | 0.00 | 85 | 1016.0 |
| 20260901021732 | 51 | 261 | 2.6 | 7.0 | 0.00 | 0.02 | 0.00 | 85 | 1016.0 |
| 20260901021234 | 51 | 282 | 2.6 | 9.6 | 0.00 | 0.02 | 0.00 | 85 | 1016.1 |
| 20260901020733 | 52 | 200 | 4.3 | 9.6 | 0.00 | 0.02 | 0.00 | 85 | 1016.1 |
| 20260901020232 | 52 | 248 | 5.2 | 9.6 | 0.00 | 0.02 | 0.00 | 85 | 1016.0 |
| 20260901015731 | 52 | 195 | 5.2 | 9.6 | 0.00 | 0.02 | 0.00 | 85 | 1016.0 |
| 20260901015232 | 52 | 221 | 5.2 | 11.3 | 0.00 | 0.02 | 0.00 | 85 | 1015.9 |
| 20260901014733 | 51 | 233 | 6.1 | 11.3 | 0.00 | 0.02 | 0.00 | 85 | 1015.9 |
| 20260901013733 | 51 | 207 | 6.1 | 9.6 | 0.00 | 0.02 | 0.00 | 86 | 1015.9 |
| 20260901013233 | 51 | 257 | 4.3 | 7.0 | 0.00 | 0.02 | 0.00 | 85 | 1016.0 |
| 20260901012730 | 51 | 251 | 2.6 | 7.0 | 0.00 | 0.02 | 0.00 | 84 | 1015.9 |
| 20260901011733 | 52 | 243 | 4.3 | 11.3 | 0.00 | 0.02 | 0.00 | 84 | 1016.0 |
| 20260901011231 | 52 | 279 | 6.1 | 11.3 | 0.00 | 0.02 | 0.00 | 84 | 1015.9 |
| 20260901010731 | 52 | 237 | 3.5 | 11.3 | 0.00 | 0.02 | 0.00 | 84 | 1015.9 |
| 20260901010229 | 52 | 226 | 7.8 | 11.3 | 0.00 | 0.02 | 0.00 | 84 | 1015.8 |
| 20260901005734 | 52 | 217 | 7.8 | 11.3 | 0.00 | 0.02 | 0.00 | 84 | 1015.8 |
| 20260901005231 | 52 | 252 | 5.2 | 11.3 | 0.00 | 0.02 | 0.00 | 84 | 1015.7 |
| 20260901004731 | 52 | 221 | 4.3 | 11.3 | 0.00 | 0.02 | 0.00 | 84 | 1015.8 |
| 20260901004231 | 52 | 251 | 5.2 | 12.2 | 0.00 | 0.02 | 0.00 | 84 | 1015.7 |
| 20260901003230 | 52 | 259 | 2.6 | 10.4 | 0.00 | 0.02 | 0.00 | 84 | 1015.7 |
| 20260901002730 | 52 | 250 | 3.5 | 10.4 | 0.00 | 0.02 | 0.00 | 84 | 1015.8 |
| 20260901002233 | 52 | 254 | 5.2 | 12.2 | 0.00 | 0.02 | 0.00 | 84 | 1015.7 |
| 20260901001731 | 52 | 213 | 7.0 | 12.2 | 0.00 | 0.02 | 0.00 | 84 | 1015.7 |
| 20260901001230 | 52 | 226 | 7.0 | 11.3 | 0.00 | 0.02 | 0.00 | 84 | 1015.7 |
| 20260901000229 | 52 | 210 | 6.1 | 10.4 | 0.00 | 0.02 | 0.00 | 83 | 1015.7 |
| 20260831235733 | 52 | 240 | 5.2 | 9.6 | 0.00 | 0.02 | 0.00 | 83 | 1015.7 |
| 20260831235232 | 52 | 274 | 3.5 | 9.6 | 0.00 | 0.02 | 0.00 | 83 | 1015.7 |
| 20260831234736 | 52 | 230 | 5.2 | 9.6 | 0.00 | 0.02 | 0.00 | 83 | 1015.6 |
| 20260831234231 | 52 | 209 | 4.3 | 9.6 | 0.00 | 0.02 | 0.00 | 84 | 1015.7 |
| 20260831233732 | 52 | 244 | 4.3 | 11.3 | 0.00 | 0.02 | 0.00 | 84 | 1015.6 |
| 20260831233233 | 52 | 278 | 6.1 | 11.3 | 0.00 | 0.02 | 0.00 | 84 | 1015.6 |
| 20260831232730 | 52 | 235 | 4.3 | 11.3 | 0.00 | 0.02 | 0.00 | 84 | 1015.6 |
| 20260831232232 | 52 | 243 | 5.2 | 10.4 | 0.00 | 0.02 | 0.00 | 84 | 1015.5 |
| 20260831231232 | 52 | 237 | 5.2 | 9.6 | 0.00 | 0.02 | 0.00 | 84 | 1015.6 |
| 20260831230733 | 52 | 241 | 6.1 | 9.6 | 0.00 | 0.02 | 0.00 | 84 | 1015.5 |
| 20260831230238 | 52 | 259 | 5.2 | 10.4 | 0.00 | 0.02 | 0.00 | 84 | 1015.5 |
| 20260831225720 | 52 | 237 | 6.1 | 10.4 | 0.00 | 0.02 | 0.02 | 84 | 1015.5 |
| 20260831225219 | 52 | 235 | 2.6 | 9.6 | 0.00 | 0.02 | 0.02 | 84 | 1015.6 |
| 20260831224706 | 52 | 220 | 3.5 | 10.4 | 0.00 | 0.02 | 0.02 | 83 | 1015.5 |
| 20260831223704 | 52 | 261 | 2.6 | 7.8 | 0.00 | 0.02 | 0.02 | 82 | 1015.5 |
| 20260831223141 | 53 | 265 | 3.5 | 9.6 | 0.00 | 0.02 | 0.02 | 82 | 1015.5 |
| 20260831222635 | 53 | 266 | 4.3 | 11.3 | 0.00 | 0.02 | 0.02 | 82 | 1015.4 |
| 20260831222132 | 53 | 248 | 4.3 | 11.3 | 0.00 | 0.02 | 0.02 | 82 | 1015.5 |
| 20260831221632 | 53 | 240 | 4.3 | 11.3 | 0.00 | 0.02 | 0.02 | 82 | 1015.4 |
| 20260831221132 | 53 | 223 | 3.5 | 9.6 | 0.00 | 0.02 | 0.02 | 81 | 1015.3 |
| 20260831220633 | 53 | 238 | 4.3 | 9.6 | 0.00 | 0.02 | 0.02 | 81 | 1015.3 |
| 20260831220134 | 53 | 289 | 4.3 | 7.8 | 0.00 | 0.02 | 0.02 | 81 | 1015.2 |
| 20260831215632 | 53 | 243 | 5.2 | 9.6 | 0.00 | 0.02 | 0.02 | 81 | 1015.2 |
| 20260831215133 | 53 | 195 | 3.5 | 9.6 | 0.00 | 0.02 | 0.02 | 80 | 1015.2 |
| 20260831214632 | 53 | 241 | 4.3 | 9.6 | 0.00 | 0.02 | 0.02 | 80 | 1015.2 |
| 20260831214133 | 53 | 250 | 4.3 | 9.6 | 0.00 | 0.02 | 0.02 | 80 | 1015.1 |
| 20260831213632 | 53 | 250 | 4.3 | 9.6 | 0.00 | 0.02 | 0.02 | 80 | 1015.2 |
| 20260831212632 | 53 | 257 | 6.1 | 10.4 | 0.00 | 0.02 | 0.02 | 80 | 1015.2 |
| 20260831212133 | 53 | 237 | 4.3 | 9.6 | 0.00 | 0.02 | 0.02 | 79 | 1015.2 |
| 20260831211633 | 53 | 251 | 4.3 | 9.6 | 0.00 | 0.02 | 0.02 | 79 | 1015.2 |
| 20260831210631 | 54 | 261 | 1.7 | 7.8 | 0.00 | 0.02 | 0.02 | 80 | 1015.2 |
| 20260831210131 | 54 | 261 | 3.5 | 7.8 | 0.00 | 0.02 | 0.02 | 80 | 1015.1 |
| 20260831205633 | 54 | 248 | 1.7 | 7.0 | 0.00 | 0.02 | 0.02 | 80 | 1015.0 |
| 20260831205132 | 54 | 224 | 2.6 | 7.0 | 0.00 | 0.02 | 0.02 | 79 | 1014.9 |
| 20260831204631 | 54 | 230 | 2.6 | 7.0 | 0.00 | 0.02 | 0.02 | 79 | 1014.8 |
| 20260831204132 | 54 | 212 | 3.5 | 7.0 | 0.00 | 0.02 | 0.02 | 79 | 1014.8 |
| 20260831203630 | 54 | 224 | 2.6 | 7.0 | 0.00 | 0.02 | 0.02 | 80 | 1014.8 |
| 20260831203132 | 55 | 262 | 4.3 | 7.0 | 0.00 | 0.02 | 0.02 | 80 | 1014.7 |
| 20260831201632 | 55 | 193 | 3.5 | 7.0 | 0.00 | 0.06 | 0.02 | 79 | 1014.8 |
| 20260831200631 | 55 | 243 | 3.5 | 7.0 | 0.00 | 0.08 | 0.02 | 80 | 1014.6 |
| 20260831200132 | 55 | 255 | 3.5 | 7.0 | 0.00 | 0.09 | 0.02 | 80 | 1014.6 |
| 20260831195133 | 56 | 221 | 3.5 | 6.1 | 0.00 | 0.12 | 0.02 | 79 | 1014.3 |
| 20260831194632 | 56 | 257 | 2.6 | 7.0 | 0.00 | 0.13 | 0.02 | 79 | 1014.2 |
| 20260831194132 | 56 | 237 | 3.5 | 7.0 | 0.00 | 0.13 | 0.02 | 77 | 1014.2 |
| 20260831193631 | 56 | 233 | 3.5 | 6.1 | 0.00 | 0.13 | 0.02 | 77 | 1014.0 |
| 20260831192631 | 57 | 262 | 1.7 | 9.6 | 0.00 | 0.13 | 0.02 | 76 | 1013.9 |
| 20260831192130 | 57 | 292 | 3.5 | 10.4 | 0.00 | 0.13 | 0.02 | 76 | 1013.8 |
| 20260831191626 | 57 | 240 | 4.3 | 10.4 | 0.00 | 0.13 | 0.02 | 75 | 1013.9 |
| 20260831191118 | 57 | 234 | 5.2 | 12.2 | 0.00 | 0.13 | 0.02 | 75 | 1013.8 |
| 20260831190106 | 57 | 238 | 8.7 | 14.8 | 0.00 | 0.13 | 0.02 | 76 | 1013.6 |
| 20260831185543 | 58 | 224 | 4.3 | 13.0 | 0.00 | 0.13 | 0.02 | 76 | 1013.4 |
| 20260831185034 | 58 | 237 | 5.2 | 7.8 | 0.00 | 0.13 | 0.02 | 77 | 1013.3 |
| 20260831184534 | 58 | 259 | 4.3 | 7.8 | 0.00 | 0.13 | 0.02 | 78 | 1013.2 |
| 20260831184032 | 58 | 259 | 3.5 | 9.6 | 0.00 | 0.13 | 0.02 | 77 | 1013.1 |
| 20260831183531 | 59 | 238 | 3.5 | 10.4 | 0.00 | 0.13 | 0.02 | 77 | 1013.1 |
| 20260831182533 | 59 | 271 | 4.3 | 12.2 | 0.00 | 0.14 | 0.02 | 76 | 1012.8 |
| 20260831182031 | 60 | 251 | 4.3 | 10.4 | 0.00 | 0.14 | 0.02 | 74 | 1012.8 |
| 20260831181533 | 60 | 259 | 5.2 | 13.9 | 0.00 | 0.14 | 0.02 | 74 | 1012.7 |
| 20260831181030 | 61 | 244 | 5.2 | 20.0 | 0.00 | 0.14 | 0.02 | 73 | 1012.6 |
| 20260831180531 | 61 | 269 | 9.6 | 20.0 | 0.00 | 0.14 | 0.02 | 72 | 1012.5 |
| 20260831175533 | 62 | 293 | 7.8 | 17.4 | 0.00 | 0.14 | 0.02 | 70 | 1012.4 |
| 20260831175030 | 62 | 281 | 9.6 | 16.5 | 0.00 | 0.14 | 0.02 | 70 | 1012.4 |
| 20260831174528 | 63 | 265 | 10.4 | 16.5 | 0.00 | 0.14 | 0.02 | 70 | 1012.2 |
| 20260831174030 | 63 | 278 | 9.6 | 15.6 | 0.00 | 0.14 | 0.02 | 70 | 1012.1 |
| 20260831173529 | 63 | 278 | 9.6 | 15.6 | 0.00 | 0.14 | 0.02 | 70 | 1012.1 |
| 20260831172020 | 63 | 255 | 4.3 | 13.9 | 0.00 | 0.14 | 0.02 | 71 | 1011.7 |
| 20260831171003 | 63 | 243 | 9.6 | 15.6 | 0.00 | 0.14 | 0.02 | 70 | 1011.7 |
| 20260831170504 | 63 | 257 | 10.4 | 15.6 | 0.00 | 0.14 | 0.02 | 70 | 1011.6 |
| 20260831165954 | 64 | 290 | 10.4 | 15.6 | 0.00 | 0.14 | 0.02 | 70 | 1011.7 |
| 20260831164930 | 64 | 224 | 7.0 | 15.6 | 0.00 | 0.14 | 0.02 | 73 | 1011.4 |
| 20260831164435 | 64 | 268 | 9.6 | 18.2 | 0.00 | 0.14 | 0.02 | 77 | 1011.3 |
| 20260831163433 | 64 | 219 | 9.6 | 14.8 | 0.02 | 0.15 | 0.02 | 77 | 1011.1 |
| 20260831162931 | 64 | 259 | 6.1 | 12.2 | 0.02 | 0.15 | 0.02 | 78 | 1011.1 |
| 20260831162431 | 64 | 248 | 4.3 | 11.3 | 0.02 | 0.17 | 0.02 | 81 | 1011.1 |
| 20260831161933 | 64 | 268 | 7.0 | 13.0 | 0.02 | 0.24 | 0.02 | 81 | 1011.0 |
| 20260831161435 | 63 | 293 | 7.0 | 13.0 | 0.02 | 0.25 | 0.02 | 81 | 1011.0 |
| 20260831160931 | 63 | 255 | 5.2 | 10.4 | 0.02 | 0.26 | 0.02 | 85 | 1010.9 |
| 20260831154929 | 63 | 312 | 4.3 | 13.9 | 0.02 | 0.26 | 0.02 | 82 | 1010.7 |
| 20260831154428 | 64 | 234 | 7.0 | 14.8 | 0.02 | 0.26 | 0.02 | 80 | 1010.7 |
| 20260831153930 | 65 | 214 | 7.0 | 14.8 | 0.02 | 0.26 | 0.02 | 76 | 1010.7 |
| 20260831153429 | 66 | 244 | 5.2 | 10.4 | 0.00 | 0.24 | 0.00 | 74 | 1010.5 |
| 20260831152906 | 66 | 227 | 1.7 | 10.4 | 0.00 | 0.24 | 0.00 | 72 | 1010.3 |
| 20260831152403 | 66 | 275 | 3.5 | 10.4 | 0.00 | 0.24 | 0.00 | 72 | 1010.3 |
| 20260831151406 | 66 | 274 | 7.0 | 12.2 | 0.00 | 0.24 | 0.00 | 71 | 1010.3 |
| 20260831150903 | 66 | 238 | 5.2 | 14.8 | 0.00 | 0.24 | 0.00 | 71 | 1010.3 |
| 20260831150405 | 66 | 276 | 7.0 | 14.8 | 0.00 | 0.24 | 0.00 | 72 | 1010.1 |
| 20260831145332 | 66 | 224 | 5.2 | 13.0 | 0.00 | 0.24 | 0.00 | 72 | 1010.0 |
| 20260831144332 | 67 | 221 | 8.7 | 13.9 | 0.00 | 0.24 | 0.00 | 75 | 1009.8 |
| 20260831143832 | 67 | 241 | 7.8 | 13.9 | 0.00 | 0.24 | 0.00 | 75 | 1009.9 |
| 20260831143330 | 66 | 231 | 6.1 | 13.9 | 0.00 | 0.24 | 0.00 | 77 | 1009.7 |
| 20260831142833 | 65 | 220 | 5.2 | 13.9 | 0.00 | 0.24 | 0.00 | 77 | 1009.7 |
| 20260831142333 | 65 | 206 | 9.6 | 13.9 | 0.00 | 0.24 | 0.00 | 79 | 1009.7 |
| 20260831141832 | 65 | 212 | 8.7 | 13.0 | 0.00 | 0.24 | 0.00 | 79 | 1009.7 |
| 20260831140833 | 66 | 244 | 6.1 | 13.9 | 0.00 | 0.24 | 0.00 | 77 | 1009.7 |
| 20260831140332 | 66 | 248 | 5.2 | 13.0 | 0.00 | 0.24 | 0.00 | 75 | 1009.5 |
| 20260831135831 | 66 | 244 | 8.7 | 13.0 | 0.00 | 0.24 | 0.00 | 78 | 1009.5 |
| 20260831135332 | 64 | 285 | 6.1 | 13.0 | 0.00 | 0.24 | 0.00 | 76 | 1009.5 |
| 20260831133833 | 66 | 288 | 9.6 | 19.1 | 0.00 | 0.24 | 0.00 | 72 | 1009.2 |
| 20260831132830 | 66 | 289 | 5.2 | 15.6 | 0.00 | 0.24 | 0.00 | 72 | 1008.9 |
| 20260831132333 | 66 | 278 | 7.8 | 15.6 | 0.00 | 0.24 | 0.00 | 72 | 1008.9 |
| 20260831131831 | 66 | 250 | 7.0 | 13.0 | 0.00 | 0.24 | 0.00 | 71 | 1008.9 |
| 20260831130833 | 67 | 268 | 3.5 | 9.6 | 0.00 | 0.24 | 0.00 | 72 | 1008.8 |
| 20260831130336 | 66 | 283 | 4.3 | 9.6 | 0.00 | 0.24 | 0.00 | 71 | 1008.8 |
| 20260831125331 | 66 | 252 | 2.6 | 12.2 | 0.00 | 0.24 | 0.00 | 72 | 1008.7 |
| 20260831124832 | 65 | 330 | 6.1 | 12.2 | 0.00 | 0.24 | 0.00 | 72 | 1008.7 |
| 20260831123832 | 65 | 279 | 5.2 | 13.0 | 0.00 | 0.24 | 0.00 | 72 | 1008.6 |
| 20260831123331 | 66 | 290 | 8.7 | 13.0 | 0.00 | 0.24 | 0.00 | 71 | 1008.5 |
| 20260831122831 | 66 | 306 | 6.1 | 13.0 | 0.00 | 0.24 | 0.00 | 73 | 1008.6 |
| 20260831122331 | 65 | 286 | 4.3 | 13.0 | 0.00 | 0.24 | 0.00 | 72 | 1008.5 |
| 20260831121831 | 65 | 247 | 6.1 | 12.2 | 0.00 | 0.24 | 0.00 | 73 | 1008.4 |
| 20260831121332 | 65 | 282 | 5.2 | 12.2 | 0.00 | 0.24 | 0.00 | 73 | 1008.3 |
| 20260831120831 | 65 | 299 | 6.1 | 13.0 | 0.00 | 0.24 | 0.00 | 72 | 1008.4 |
| 20260831120333 | 65 | 271 | 7.0 | 15.6 | 0.00 | 0.24 | 0.00 | 73 | 1008.3 |
| 20260831115831 | 66 | 282 | 6.1 | 15.6 | 0.00 | 0.24 | 0.00 | 73 | 1008.1 |
| 20260831115332 | 66 | 245 | 5.2 | 12.2 | 0.00 | 0.24 | 0.00 | 74 | 1008.0 |
| 20260831114831 | 66 | 220 | 6.1 | 11.3 | 0.00 | 0.24 | 0.00 | 76 | 1008.0 |
| 20260831114331 | 66 | 307 | 6.1 | 12.2 | 0.00 | 0.24 | 0.00 | 76 | 1007.9 |
| 20260831113830 | 66 | 306 | 4.3 | 12.2 | 0.00 | 0.24 | 0.00 | 78 | 1007.8 |
| 20260831113331 | 66 | 296 | 7.0 | 11.3 | 0.00 | 0.24 | 0.00 | 78 | 1007.8 |
| 20260831112831 | 66 | 309 | 4.3 | 9.6 | 0.00 | 0.24 | 0.00 | 78 | 1007.7 |
| 20260831112331 | 64 | 279 | 5.2 | 9.6 | 0.00 | 0.24 | 0.00 | 80 | 1007.7 |
| 20260831111832 | 64 | 282 | 5.2 | 11.3 | 0.00 | 0.24 | 0.00 | 81 | 1007.6 |
| 20260831111330 | 64 | 317 | 5.2 | 11.3 | 0.00 | 0.24 | 0.00 | 84 | 1007.6 |
| 20260831110831 | 64 | 274 | 4.3 | 11.3 | 0.00 | 0.24 | 0.00 | 84 | 1007.5 |
| 20260831110331 | 62 | 254 | 4.3 | 10.4 | 0.00 | 0.24 | 0.00 | 83 | 1007.5 |
| 20260831104829 | 63 | 228 | 6.1 | 11.3 | 0.00 | 0.24 | 0.00 | 83 | 1007.3 |
| 20260831104331 | 63 | 272 | 2.6 | 7.8 | 0.00 | 0.24 | 0.00 | 82 | 1007.2 |
| 20260831103832 | 64 | 234 | 4.3 | 7.8 | 0.00 | 0.24 | 0.00 | 82 | 1007.1 |
| 20260831102831 | 64 | 275 | 4.3 | 7.8 | 0.00 | 0.24 | 0.00 | 81 | 1007.0 |
| 20260831102332 | 63 | 238 | 2.6 | 7.8 | 0.00 | 0.24 | 0.00 | 84 | 1007.0 |
| 20260831101829 | 62 | 259 | 5.2 | 7.8 | 0.00 | 0.24 | 0.00 | 87 | 1007.0 |
| 20260831101332 | 61 | 309 | 4.3 | 9.6 | 0.00 | 0.24 | 0.00 | 86 | 1007.0 |
| 20260831100831 | 62 | 321 | 3.5 | 9.6 | 0.00 | 0.24 | 0.00 | 85 | 1006.9 |
| 20260831100330 | 62 | 286 | 2.6 | 9.6 | 0.00 | 0.24 | 0.00 | 85 | 1007.1 |
| 20260831095836 | 62 | 298 | 4.3 | 9.6 | 0.00 | 0.24 | 0.00 | 86 | 1007.0 |
| 20260831095331 | 62 | 283 | 3.5 | 10.4 | 0.00 | 0.24 | 0.00 | 86 | 1006.9 |
| 20260831094831 | 62 | 289 | 4.3 | 10.4 | 0.00 | 0.24 | 0.00 | 86 | 1006.9 |
| 20260831093829 | 61 | 266 | 2.6 | 9.6 | 0.00 | 0.24 | 0.00 | 90 | 1006.9 |
| 20260831093331 | 60 | 252 | 5.2 | 7.8 | 0.00 | 0.24 | 0.00 | 92 | 1006.8 |
| 20260831092832 | 59 | 252 | 4.3 | 7.0 | 0.00 | 0.24 | 0.00 | 92 | 1006.7 |
| 20260831091832 | 58 | 286 | 4.3 | 7.0 | 0.00 | 0.24 | 0.00 | 94 | 1006.6 |
| 20260831091331 | 58 | 233 | 1.7 | 7.8 | 0.00 | 0.24 | 0.00 | 94 | 1006.5 |
| 20260831090830 | 58 | 276 | 4.3 | 7.8 | 0.00 | 0.24 | 0.00 | 94 | 1006.6 |
| 20260831090329 | 58 | 226 | 3.5 | 7.0 | 0.00 | 0.24 | 0.00 | 94 | 1006.5 |
| 20260831085831 | 57 | 262 | 3.5 | 7.8 | 0.00 | 0.24 | 0.00 | 95 | 1006.3 |
| 20260831085329 | 57 | 224 | 3.5 | 7.8 | 0.00 | 0.24 | 0.00 | 95 | 1006.3 |
| 20260831084829 | 56 | 252 | 5.2 | 7.8 | 0.00 | 0.24 | 0.00 | 95 | 1006.2 |
| 20260831084330 | 56 | 243 | 3.5 | 6.1 | 0.00 | 0.24 | 0.00 | 95 | 1006.1 |
| 20260831083830 | 56 | 244 | 4.3 | 7.0 | 0.00 | 0.24 | 0.00 | 95 | 1006.0 |
| 20260831083330 | 56 | 266 | 2.6 | 7.0 | 0.00 | 0.24 | 0.00 | 95 | 1005.9 |
| 20260831082831 | 56 | 266 | 3.5 | 7.0 | 0.00 | 0.24 | 0.00 | 96 | 1005.8 |
| 20260831082330 | 55 | 248 | 3.5 | 7.0 | 0.00 | 0.24 | 0.00 | 96 | 1005.7 |
| 20260831081331 | 55 | 243 | 4.3 | 7.8 | 0.00 | 0.24 | 0.00 | 97 | 1005.7 |
| 20260831080806 | 55 | 248 | 3.5 | 7.8 | 0.00 | 0.24 | 0.00 | 97 | 1005.4 |
| 20260831080305 | 55 | 244 | 4.3 | 7.8 | 0.00 | 0.24 | 0.00 | 97 | 1005.3 |
| 20260831075804 | 55 | 220 | 3.5 | 7.8 | 0.00 | 0.24 | 0.00 | 97 | 1005.3 |
| 20260831075306 | 54 | 247 | 2.6 | 7.0 | 0.00 | 0.24 | 0.00 | 97 | 1005.2 |
| 20260831074757 | 54 | 237 | 4.3 | 7.0 | 0.00 | 0.24 | 0.00 | 97 | 1005.2 |
| 20260831074252 | 54 | 202 | 2.6 | 7.8 | 0.00 | 0.25 | 0.00 | 97 | 1005.2 |
| 20260831073731 | 54 | 217 | 4.3 | 10.4 | 0.00 | 0.25 | 0.00 | 97 | 1005.1 |
| 20260831072734 | 54 | 221 | 4.3 | 7.8 | 0.00 | 0.25 | 0.00 | 98 | 1005.0 |
| 20260831072232 | 54 | 282 | 4.3 | 9.6 | 0.00 | 0.25 | 0.00 | 98 | 1004.8 |
| 20260831071740 | 54 | 209 | 4.3 | 9.6 | 0.00 | 0.25 | 0.00 | 98 | 1004.7 |
| 20260831071230 | 54 | 251 | 3.5 | 7.0 | 0.00 | 0.25 | 0.00 | 98 | 1004.7 |
| 20260831070233 | 54 | 234 | 4.3 | 10.4 | 0.00 | 0.25 | 0.00 | 98 | 1004.5 |
| 20260831065732 | 54 | 243 | 5.2 | 10.4 | 0.00 | 0.25 | 0.00 | 98 | 1004.5 |
| 20260831065231 | 54 | 234 | 3.5 | 7.0 | 0.00 | 0.25 | 0.00 | 98 | 1004.5 |
| 20260831064717 | 54 | 281 | 2.6 | 7.0 | 0.00 | 0.25 | 0.00 | 98 | 1004.4 |
| 20260831063707 | 54 | 252 | 2.6 | 6.1 | 0.00 | 0.25 | 0.00 | 98 | 1004.2 |
| 20260831063205 | 53 | 255 | 2.6 | 6.1 | 0.00 | 0.25 | 0.00 | 98 | 1004.1 |
| 20260831062708 | 53 | 272 | 2.6 | 6.1 | 0.00 | 0.25 | 0.00 | 98 | 1004.1 |
| 20260831060705 | 53 | 245 | 1.7 | 5.2 | 0.00 | 0.25 | 0.00 | 98 | 1003.9 |
| 20260831055651 | 53 | 255 | 1.7 | 6.1 | 0.00 | 0.25 | 0.00 | 98 | 1003.7 |
| 20260831055144 | 53 | 227 | 2.6 | 6.1 | 0.00 | 0.25 | 0.00 | 98 | 1003.6 |
| 20260831054130 | 53 | 245 | 2.6 | 6.1 | 0.00 | 0.25 | 0.00 | 98 | 1003.6 |
| 20260831053130 | 53 | 258 | 2.6 | 6.1 | 0.00 | 0.25 | 0.00 | 98 | 1003.5 |
| 20260831052608 | 53 | 238 | 1.7 | 6.1 | 0.00 | 0.25 | 0.00 | 98 | 1003.4 |
| 20260831052105 | 53 | 295 | 1.7 | 5.2 | 0.00 | 0.25 | 0.00 | 98 | 1003.3 |
| 20260831051606 | 53 | 265 | 1.7 | 5.2 | 0.00 | 0.25 | 0.00 | 98 | 1003.3 |